Wetterdaten: Mittwoch, 16.09.2015
Datum Zeit Auen-Temp. Temp gefhlt Luftfeuchte Luftdruck Regen Wind Richtung Richtung Taupunkt Windben
16.09.2015 00:00 10,5 C 10,4 C 80 % 1009,3 hPa 0,0 mm 0,5 km/h (0 Bft) S-SO 157 7,2 C 0,0 km/h (0 Bft)
16.09.2015 00:05 10,3 C 10,3 C 80 % 1009,3 hPa 0,0 mm 0,0 km/h (0 Bft) O-SO 112 7,0 C 0,0 km/h (0 Bft)
16.09.2015 00:10 10,0 C 10,0 C 80 % 1009,3 hPa 0,0 mm 0,0 km/h (0 Bft) O-SO 112 6,7 C 0,0 km/h (0 Bft)
16.09.2015 00:15 9,9 C 9,9 C 80 % 1009,2 hPa 0,0 mm 0,0 km/h (0 Bft) O-SO 112 6,6 C 0,0 km/h (0 Bft)
16.09.2015 00:20 10,0 C 9,9 C 81 % 1009,2 hPa 0,0 mm 0,0 km/h (0 Bft) O-SO 112 6,9 C 0,0 km/h (0 Bft)
16.09.2015 00:25 10,1 C 10,0 C 79 % 1009,2 hPa 0,0 mm 0,0 km/h (0 Bft) S-SO 157 6,6 C 0,0 km/h (0 Bft)
16.09.2015 00:30 10,0 C 10,0 C 81 % 1009,2 hPa 0,0 mm 0,0 km/h (0 Bft) O-SO 112 6,9 C 0,0 km/h (0 Bft)
16.09.2015 00:35 9,9 C 9,9 C 82 % 1008,9 hPa 0,0 mm 0,0 km/h (0 Bft) O-SO 112 7,0 C 0,0 km/h (0 Bft)
16.09.2015 00:40 9,9 C 9,8 C 82 % 1008,9 hPa 0,0 mm 0,0 km/h (0 Bft) O-SO 112 7,0 C 0,0 km/h (0 Bft)
16.09.2015 00:45 9,9 C 9,8 C 82 % 1008,9 hPa 0,0 mm 0,0 km/h (0 Bft) NW 315 7,0 C 0,0 km/h (0 Bft)
16.09.2015 00:50 9,9 C 9,9 C 82 % 1008,9 hPa 0,0 mm 0,3 km/h (0 Bft) NW 315 7,0 C 0,0 km/h (0 Bft)
16.09.2015 00:55 9,8 C 9,8 C 82 % 1008,6 hPa 0,0 mm 0,3 km/h (0 Bft) NW 315 6,9 C 0,0 km/h (0 Bft)
16.09.2015 01:00 9,9 C 9,8 C 83 % 1008,6 hPa 0,0 mm 0,0 km/h (0 Bft) W-NW 292 7,2 C 0,0 km/h (0 Bft)
16.09.2015 01:05 9,9 C 9,8 C 83 % 1008,6 hPa 0,0 mm 0,0 km/h (0 Bft) W-SW 247 7,2 C 0,0 km/h (0 Bft)
16.09.2015 01:10 9,9 C 9,7 C 83 % 1008,6 hPa 0,0 mm 0,0 km/h (0 Bft) W-SW 247 7,2 C 0,0 km/h (0 Bft)
16.09.2015 01:15 10,0 C 9,8 C 83 % 1008,3 hPa 0,0 mm 0,3 km/h (0 Bft) S 180 7,2 C 0,0 km/h (0 Bft)
16.09.2015 01:20 9,9 C 9,8 C 83 % 1008,3 hPa 0,0 mm 0,3 km/h (0 Bft) NW 315 7,2 C 3,6 km/h (1 Bft)
16.09.2015 01:25 9,8 C 9,7 C 83 % 1008,3 hPa 0,0 mm 0,0 km/h (0 Bft) NO 45 7,1 C 0,0 km/h (0 Bft)
16.09.2015 01:30 9,7 C 9,6 C 84 % 1008,3 hPa 0,0 mm 0,3 km/h (0 Bft) W 270 7,1 C 0,0 km/h (0 Bft)
16.09.2015 01:35 9,9 C 9,7 C 84 % 1008,0 hPa 0,0 mm 0,5 km/h (0 Bft) SO 135 7,3 C 0,0 km/h (0 Bft)
16.09.2015 01:40 9,6 C 9,4 C 84 % 1008,0 hPa 0,0 mm 0,5 km/h (0 Bft) W-SW 247 7,0 C 2,8 km/h (1 Bft)
16.09.2015 01:45 9,5 C 9,3 C 84 % 1008,0 hPa 0,0 mm 0,8 km/h (0 Bft) SO 135 6,9 C 4,7 km/h (1 Bft)
16.09.2015 01:50 9,5 C 9,2 C 85 % 1008,0 hPa 0,0 mm 2,3 km/h (1 Bft) S 180 7,1 C 7,0 km/h (2 Bft)
16.09.2015 01:55 9,5 C 9,2 C 85 % 1007,5 hPa 0,0 mm 3,1 km/h (1 Bft) SO 135 7,1 C 4,1 km/h (1 Bft)
16.09.2015 02:00 9,3 C 9,1 C 86 % 1007,5 hPa 0,0 mm 2,1 km/h (1 Bft) SO 135 7,1 C 0,0 km/h (0 Bft)
16.09.2015 02:05 8,8 C 8,8 C 85 % 1007,5 hPa 0,0 mm 1,3 km/h (1 Bft) O-NO 67 6,4 C 0,0 km/h (0 Bft)
16.09.2015 02:10 8,7 C 8,5 C 85 % 1007,5 hPa 0,0 mm 0,3 km/h (0 Bft) SW 225 6,3 C 4,1 km/h (1 Bft)
16.09.2015 02:15 8,8 C 8,5 C 86 % 1007,2 hPa 0,0 mm 0,8 km/h (0 Bft) O 90 6,6 C 3,1 km/h (1 Bft)
16.09.2015 02:20 8,5 C 8,3 C 86 % 1007,2 hPa 0,0 mm 0,8 km/h (0 Bft) O-NO 67 6,3 C 0,0 km/h (0 Bft)
16.09.2015 02:25 8,3 C 8,1 C 86 % 1007,2 hPa 0,0 mm 0,3 km/h (0 Bft) SW 225 6,1 C 3,6 km/h (1 Bft)
16.09.2015 02:30 8,5 C 8,2 C 86 % 1007,2 hPa 0,0 mm 0,3 km/h (0 Bft) S 180 6,3 C 0,0 km/h (0 Bft)
16.09.2015 02:35 8,5 C 8,2 C 86 % 1006,8 hPa 0,0 mm 0,8 km/h (0 Bft) O-SO 112 6,3 C 3,1 km/h (1 Bft)
16.09.2015 02:40 8,2 C 8,0 C 86 % 1006,8 hPa 0,0 mm 0,8 km/h (0 Bft) W-NW 292 6,0 C 0,0 km/h (0 Bft)
16.09.2015 02:45 8,2 C 8,0 C 86 % 1006,8 hPa 0,0 mm 0,8 km/h (0 Bft) W-SW 247 6,0 C 2,8 km/h (1 Bft)
16.09.2015 02:50 8,5 C 8,2 C 87 % 1006,8 hPa 0,0 mm 1,6 km/h (1 Bft) O-SO 112 6,5 C 3,1 km/h (1 Bft)
16.09.2015 02:55 8,4 C 8,2 C 88 % 1006,8 hPa 0,0 mm 2,3 km/h (1 Bft) O 90 6,5 C 0,0 km/h (0 Bft)
16.09.2015 03:00 8,0 C 7,9 C 87 % 1006,8 hPa 0,0 mm 1,3 km/h (1 Bft) SW 225 6,0 C 0,0 km/h (0 Bft)
16.09.2015 03:05 7,9 C 7,8 C 87 % 1006,8 hPa 0,0 mm 0,5 km/h (0 Bft) W-SW 247 5,9 C 0,0 km/h (0 Bft)
16.09.2015 03:10 8,1 C 7,9 C 87 % 1006,8 hPa 0,0 mm 2,3 km/h (1 Bft) NW 315 6,1 C 9,8 km/h (2 Bft)
16.09.2015 03:15 8,3 C 8,0 C 88 % 1006,2 hPa 0,0 mm 2,3 km/h (1 Bft) S-SO 157 6,4 C 0,0 km/h (0 Bft)
16.09.2015 03:20 8,2 C 8,0 C 88 % 1006,2 hPa 0,0 mm 0,5 km/h (0 Bft) O-SO 112 6,3 C 0,0 km/h (0 Bft)
16.09.2015 03:25 8,1 C 7,9 C 88 % 1006,2 hPa 0,0 mm 0,3 km/h (0 Bft) O-NO 67 6,2 C 3,1 km/h (1 Bft)
16.09.2015 03:30 7,8 C 7,7 C 88 % 1006,2 hPa 0,0 mm 0,5 km/h (0 Bft) NW 315 5,9 C 0,0 km/h (0 Bft)
16.09.2015 03:35 8,0 C 7,8 C 88 % 1006,2 hPa 0,0 mm 1,6 km/h (1 Bft) S 180 6,1 C 9,3 km/h (2 Bft)
16.09.2015 03:40 8,0 C 7,8 C 89 % 1006,2 hPa 0,0 mm 2,1 km/h (1 Bft) SO 135 6,3 C 0,0 km/h (0 Bft)
16.09.2015 03:45 7,8 C 7,7 C 89 % 1006,2 hPa 0,0 mm 2,1 km/h (1 Bft) N-NW 337 6,1 C 3,1 km/h (1 Bft)
16.09.2015 03:50 7,5 C 7,4 C 88 % 1006,2 hPa 0,0 mm 0,8 km/h (0 Bft) SW 225 5,6 C 0,0 km/h (0 Bft)
16.09.2015 03:55 7,6 C 7,5 C 88 % 1006,2 hPa 0,0 mm 0,8 km/h (0 Bft) S-SO 157 5,7 C 3,4 km/h (1 Bft)
16.09.2015 04:00 8,1 C 8,0 C 85 % 1006,2 hPa 0,0 mm 1,8 km/h (1 Bft) SW 225 5,7 C 10,9 km/h (2 Bft)
16.09.2015 04:05 8,0 C 7,9 C 89 % 1006,2 hPa 0,0 mm 2,3 km/h (1 Bft) W-NW 292 6,3 C 3,4 km/h (1 Bft)
16.09.2015 04:10 7,9 C 7,8 C 89 % 1006,2 hPa 0,0 mm 1,0 km/h (0 Bft) SO 135 6,2 C 0,0 km/h (0 Bft)
16.09.2015 04:15 7,7 C 7,6 C 89 % 1006,0 hPa 0,0 mm 0,5 km/h (0 Bft) S 180 6,0 C 0,0 km/h (0 Bft)
16.09.2015 04:20 7,6 C 7,5 C 89 % 1006,0 hPa 0,0 mm 0,5 km/h (0 Bft) S-SO 157 5,9 C 2,8 km/h (1 Bft)
16.09.2015 04:25 7,6 C 7,5 C 89 % 1006,0 hPa 0,0 mm 0,5 km/h (0 Bft) S-SO 157 5,9 C 2,8 km/h (1 Bft)
16.09.2015 04:30 8,1 C 8,0 C 85 % 1006,0 hPa 0,0 mm 2,8 km/h (1 Bft) S-SO 157 5,7 C 12,2 km/h (2 Bft)
16.09.2015 04:35 8,3 C 8,2 C 85 % 1005,7 hPa 0,0 mm 3,6 km/h (1 Bft) SO 135 5,9 C 0,0 km/h (0 Bft)
16.09.2015 04:40 8,6 C 8,5 C 86 % 1005,7 hPa 0,0 mm 2,8 km/h (1 Bft) W-SW 247 6,4 C 7,8 km/h (2 Bft)
16.09.2015 04:45 8,8 C 8,7 C 86 % 1005,7 hPa 0,0 mm 2,6 km/h (1 Bft) S 180 6,6 C 4,7 km/h (1 Bft)
16.09.2015 04:50 8,5 C 8,3 C 89 % 1005,7 hPa 0,0 mm 1,8 km/h (1 Bft) N-NW 337 6,8 C 0,0 km/h (0 Bft)
16.09.2015 04:55 8,3 C 8,1 C 89 % 1005,9 hPa 0,0 mm 1,8 km/h (1 Bft) O-SO 112 6,6 C 6,0 km/h (2 Bft)
16.09.2015 05:00 8,1 C 8,0 C 89 % 1005,9 hPa 0,0 mm 1,0 km/h (0 Bft) O 90 6,4 C 0,0 km/h (0 Bft)
16.09.2015 05:05 8,1 C 7,9 C 88 % 1005,9 hPa 0,0 mm 0,8 km/h (0 Bft) W 270 6,2 C 0,0 km/h (0 Bft)
16.09.2015 05:10 8,1 C 7,9 C 88 % 1005,9 hPa 0,0 mm 0,3 km/h (0 Bft) S-SO 157 6,2 C 0,0 km/h (0 Bft)
16.09.2015 05:15 8,2 C 8,0 C 89 % 1005,4 hPa 0,0 mm 0,0 km/h (0 Bft) SW 225 6,5 C 0,0 km/h (0 Bft)
16.09.2015 05:20 8,4 C 8,1 C 89 % 1005,4 hPa 0,0 mm 0,5 km/h (0 Bft) W-NW 292 6,7 C 4,9 km/h (1 Bft)
16.09.2015 05:25 8,2 C 8,0 C 88 % 1005,4 hPa 0,0 mm 0,5 km/h (0 Bft) S-SO 157 6,3 C 0,0 km/h (0 Bft)
16.09.2015 05:30 8,0 C 7,9 C 88 % 1005,4 hPa 0,0 mm 0,5 km/h (0 Bft) NW 315 6,1 C 0,0 km/h (0 Bft)
16.09.2015 05:35 7,8 C 7,7 C 88 % 1005,4 hPa 0,0 mm 0,3 km/h (0 Bft) SO 135 5,9 C 2,6 km/h (1 Bft)
16.09.2015 05:40 8,0 C 7,9 C 88 % 1005,4 hPa 0,0 mm 0,8 km/h (0 Bft) W-NW 292 6,1 C 0,0 km/h (0 Bft)
16.09.2015 05:45 8,0 C 8,0 C 88 % 1005,4 hPa 0,0 mm 0,8 km/h (0 Bft) W-NW 292 6,1 C 0,0 km/h (0 Bft)
16.09.2015 05:50 8,0 C 8,0 C 88 % 1005,4 hPa 0,0 mm 1,0 km/h (0 Bft) W 270 6,1 C 0,0 km/h (0 Bft)
16.09.2015 05:55 8,0 C 8,0 C 85 % 1005,2 hPa 0,0 mm 1,6 km/h (1 Bft) O-SO 112 5,6 C 0,0 km/h (0 Bft)
16.09.2015 06:00 7,9 C 8,0 C 89 % 1005,2 hPa 0,0 mm 0,5 km/h (0 Bft) N-NW 337 6,2 C 0,0 km/h (0 Bft)
16.09.2015 06:05 8,2 C 8,2 C 85 % 1005,2 hPa 0,0 mm 0,3 km/h (0 Bft) SW 225 5,8 C 0,0 km/h (0 Bft)
16.09.2015 06:10 8,4 C 8,4 C 85 % 1005,2 hPa 0,0 mm 0,0 km/h (0 Bft) SW 225 6,0 C 0,0 km/h (0 Bft)
16.09.2015 06:15 8,5 C 8,7 C 85 % 1005,4 hPa 0,0 mm 0,0 km/h (0 Bft) SW 225 6,1 C 0,0 km/h (0 Bft)
16.09.2015 06:20 8,6 C 8,7 C 89 % 1005,4 hPa 0,0 mm 0,5 km/h (0 Bft) NW 315 6,9 C 0,0 km/h (0 Bft)
16.09.2015 06:25 8,5 C 8,7 C 88 % 1005,4 hPa 0,0 mm 0,8 km/h (0 Bft) W-NW 292 6,6 C 4,4 km/h (1 Bft)
16.09.2015 06:30 8,5 C 8,7 C 85 % 1005,4 hPa 0,0 mm 0,3 km/h (0 Bft) O 90 6,1 C 0,0 km/h (0 Bft)
16.09.2015 06:35 8,5 C 8,8 C 85 % 1005,2 hPa 0,0 mm 0,3 km/h (0 Bft) N-NO 22 6,1 C 0,0 km/h (0 Bft)
16.09.2015 06:40 8,7 C 9,1 C 85 % 1005,2 hPa 0,0 mm 0,5 km/h (0 Bft) NW 315 6,3 C 0,0 km/h (0 Bft)
16.09.2015 06:45 8,8 C 9,3 C 85 % 1005,2 hPa 0,0 mm 1,0 km/h (0 Bft) NW 315 6,4 C 0,0 km/h (0 Bft)
16.09.2015 06:50 9,1 C 9,8 C 85 % 1005,2 hPa 0,0 mm 1,0 km/h (0 Bft) SO 135 6,7 C 0,0 km/h (0 Bft)
16.09.2015 06:55 9,4 C 10,0 C 85 % 1005,1 hPa 0,0 mm 1,6 km/h (1 Bft) W 270 7,0 C 9,3 km/h (2 Bft)
16.09.2015 07:00 9,6 C 10,3 C 85 % 1005,1 hPa 0,0 mm 1,8 km/h (1 Bft) W 270 7,2 C 12,7 km/h (3 Bft)
16.09.2015 07:05 9,6 C 10,5 C 85 % 1005,1 hPa 0,0 mm 2,1 km/h (1 Bft) W 270 7,2 C 0,0 km/h (0 Bft)
16.09.2015 07:10 9,7 C 10,6 C 85 % 1005,1 hPa 0,0 mm 1,0 km/h (0 Bft) W-NW 292 7,3 C 0,0 km/h (0 Bft)
16.09.2015 07:15 9,7 C 10,6 C 85 % 1005,2 hPa 0,0 mm 0,3 km/h (0 Bft) NW 315 7,3 C 0,0 km/h (0 Bft)
16.09.2015 07:20 9,8 C 10,6 C 85 % 1005,2 hPa 0,0 mm 0,0 km/h (0 Bft) O-NO 67 7,4 C 0,0 km/h (0 Bft)
16.09.2015 07:25 10,2 C 10,7 C 85 % 1005,2 hPa 0,0 mm 0,3 km/h (0 Bft) W-SW 247 7,8 C 4,7 km/h (1 Bft)
16.09.2015 07:30 10,5 C 11,2 C 85 % 1005,2 hPa 0,0 mm 0,8 km/h (0 Bft) SO 135 8,1 C 3,1 km/h (1 Bft)
16.09.2015 07:35 10,6 C 11,4 C 84 % 1005,4 hPa 0,0 mm 1,6 km/h (1 Bft) W 270 8,0 C 0,0 km/h (0 Bft)
16.09.2015 07:40 10,8 C 11,6 C 84 % 1005,4 hPa 0,0 mm 1,0 km/h (0 Bft) NW 315 8,2 C 0,0 km/h (0 Bft)
16.09.2015 07:45 10,9 C 11,9 C 84 % 1005,4 hPa 0,0 mm 0,3 km/h (0 Bft) N 360 8,3 C 2,6 km/h (1 Bft)
16.09.2015 07:50 11,1 C 12,2 C 84 % 1005,4 hPa 0,0 mm 0,0 km/h (0 Bft) O-NO 67 8,5 C 0,0 km/h (0 Bft)
16.09.2015 07:55 11,2 C 12,3 C 84 % 1005,4 hPa 0,0 mm 0,3 km/h (0 Bft) SW 225 8,6 C 3,9 km/h (1 Bft)
16.09.2015 08:00 11,8 C 12,9 C 84 % 1005,4 hPa 0,0 mm 1,6 km/h (1 Bft) S 180 9,2 C 0,0 km/h (0 Bft)
16.09.2015 08:05 12,1 C 13,2 C 85 % 1005,4 hPa 0,0 mm 1,8 km/h (1 Bft) NW 315 9,7 C 6,7 km/h (2 Bft)
16.09.2015 08:10 11,7 C 12,8 C 85 % 1005,4 hPa 0,0 mm 0,8 km/h (0 Bft) O-NO 67 9,3 C 0,0 km/h (0 Bft)
16.09.2015 08:15 11,8 C 12,8 C 85 % 1005,5 hPa 0,0 mm 1,0 km/h (0 Bft) O-NO 67 9,4 C 0,0 km/h (0 Bft)
16.09.2015 08:20 11,8 C 12,8 C 84 % 1005,5 hPa 0,0 mm 0,5 km/h (0 Bft) SW 225 9,2 C 0,0 km/h (0 Bft)
16.09.2015 08:25 11,7 C 12,7 C 83 % 1005,5 hPa 0,0 mm 0,3 km/h (0 Bft) O 90 8,9 C 0,0 km/h (0 Bft)
16.09.2015 08:30 11,8 C 12,6 C 83 % 1005,5 hPa 0,0 mm 0,0 km/h (0 Bft) O-SO 112 9,0 C 0,0 km/h (0 Bft)
16.09.2015 08:35 12,0 C 12,6 C 83 % 1005,4 hPa 0,0 mm 0,5 km/h (0 Bft) S-SO 157 9,2 C 3,1 km/h (1 Bft)
16.09.2015 08:40 12,2 C 13,1 C 83 % 1005,4 hPa 0,0 mm 1,3 km/h (1 Bft) W-NW 292 9,4 C 0,0 km/h (0 Bft)
16.09.2015 08:45 12,3 C 13,3 C 83 % 1005,4 hPa 0,0 mm 1,3 km/h (1 Bft) NW 315 9,5 C 0,0 km/h (0 Bft)
16.09.2015 08:50 12,5 C 13,6 C 83 % 1005,4 hPa 0,0 mm 0,8 km/h (0 Bft) SO 135 9,7 C 0,0 km/h (0 Bft)
16.09.2015 08:55 12,6 C 13,8 C 83 % 1005,3 hPa 0,0 mm 0,3 km/h (0 Bft) O-SO 112 9,8 C 0,0 km/h (0 Bft)
16.09.2015 09:00 12,9 C 14,4 C 83 % 1005,3 hPa 0,0 mm 0,0 km/h (0 Bft) SO 135 10,1 C 0,0 km/h (0 Bft)
16.09.2015 09:05 13,1 C 15,0 C 82 % 1005,3 hPa 0,0 mm 0,0 km/h (0 Bft) NW 315 10,1 C 0,0 km/h (0 Bft)
16.09.2015 09:10 13,2 C 15,1 C 82 % 1005,3 hPa 0,0 mm 0,5 km/h (0 Bft) W 270 10,2 C 0,0 km/h (0 Bft)
16.09.2015 09:15 13,3 C 15,1 C 82 % 1005,5 hPa 0,0 mm 0,5 km/h (0 Bft) N 360 10,3 C 0,0 km/h (0 Bft)
16.09.2015 09:20 13,6 C 15,2 C 82 % 1005,5 hPa 0,0 mm 0,0 km/h (0 Bft) W 270 10,6 C 0,0 km/h (0 Bft)
16.09.2015 09:25 13,7 C 15,4 C 82 % 1005,5 hPa 0,0 mm 0,0 km/h (0 Bft) O-NO 67 10,7 C 0,0 km/h (0 Bft)
16.09.2015 09:30 14,1 C 16,2 C 82 % 1005,5 hPa 0,0 mm 1,0 km/h (0 Bft) NO 45 11,1 C 0,0 km/h (0 Bft)
16.09.2015 09:35 14,6 C 16,9 C 82 % 1005,4 hPa 0,0 mm 1,3 km/h (1 Bft) NW 315 11,6 C 5,2 km/h (1 Bft)
16.09.2015 09:40 15,1 C 17,4 C 82 % 1005,4 hPa 0,0 mm 1,3 km/h (1 Bft) O-SO 112 12,0 C 0,0 km/h (0 Bft)
16.09.2015 09:45 15,3 C 17,6 C 81 % 1005,4 hPa 0,0 mm 1,0 km/h (0 Bft) O-SO 112 12,1 C 0,0 km/h (0 Bft)
16.09.2015 09:50 15,9 C 18,4 C 80 % 1005,4 hPa 0,0 mm 1,6 km/h (1 Bft) O-SO 112 12,5 C 4,4 km/h (1 Bft)
16.09.2015 09:55 16,5 C 19,4 C 78 % 1005,1 hPa 0,0 mm 2,3 km/h (1 Bft) SO 135 12,6 C 6,5 km/h (2 Bft)
16.09.2015 10:00 17,6 C 21,0 C 73 % 1005,1 hPa 0,0 mm 3,1 km/h (1 Bft) SO 135 12,7 C 14,8 km/h (3 Bft)
16.09.2015 10:05 18,0 C 21,3 C 70 % 1005,1 hPa 0,0 mm 3,4 km/h (1 Bft) O-SO 112 12,4 C 0,0 km/h (0 Bft)
16.09.2015 10:10 18,4 C 21,5 C 70 % 1005,1 hPa 0,0 mm 1,6 km/h (1 Bft) NW 315 12,8 C 0,0 km/h (0 Bft)
16.09.2015 10:15 18,6 C 21,8 C 70 % 1005,3 hPa 0,0 mm 1,8 km/h (1 Bft) NW 315 13,0 C 3,9 km/h (1 Bft)
16.09.2015 10:20 18,8 C 22,1 C 68 % 1005,3 hPa 0,0 mm 2,1 km/h (1 Bft) O-NO 67 12,8 C 6,2 km/h (2 Bft)
16.09.2015 10:22 18,8 C 22,1 C 68 % 1005,3 hPa 0,0 mm 2,1 km/h (1 Bft) O-NO 67 12,8 C 6,2 km/h (2 Bft)
16.09.2015 10:25 18,8 C 22,1 C 68 % 1005,3 hPa 0,0 mm 2,1 km/h (1 Bft) O-NO 67 12,8 C 6,2 km/h (2 Bft)
16.09.2015 10:30 19,4 C 22,7 C 64 % 1005,3 hPa 0,0 mm 2,8 km/h (1 Bft) N-NW 337 12,4 C 25,1 km/h (4 Bft)
16.09.2015 10:35 20,1 C 23,1 C 59 % 1005,3 hPa 0,0 mm 4,9 km/h (1 Bft) SW 225 11,8 C 3,4 km/h (1 Bft)
16.09.2015 10:40 20,3 C 23,3 C 57 % 1005,3 hPa 0,0 mm 6,7 km/h (2 Bft) O 90 11,5 C 14,2 km/h (3 Bft)
16.09.2015 10:45 20,5 C 23,3 C 56 % 1005,3 hPa 0,0 mm 5,7 km/h (1 Bft) NW 315 11,4 C 4,1 km/h (1 Bft)
16.09.2015 10:50 20,3 C 23,3 C 56 % 1005,3 hPa 0,0 mm 3,9 km/h (1 Bft) N-NW 337 11,2 C 8,0 km/h (2 Bft)
16.09.2015 10:55 20,3 C 23,0 C 56 % 1005,2 hPa 0,0 mm 3,9 km/h (1 Bft) N-NO 22 11,2 C 4,7 km/h (1 Bft)
16.09.2015 11:00 20,7 C 23,0 C 55 % 1005,2 hPa 0,0 mm 5,7 km/h (1 Bft) N 360 11,3 C 3,1 km/h (1 Bft)
16.09.2015 11:05 21,0 C 24,0 C 55 % 1005,2 hPa 0,0 mm 4,1 km/h (1 Bft) W 270 11,6 C 2,6 km/h (1 Bft)
16.09.2015 11:10 21,2 C 24,8 C 56 % 1005,2 hPa 0,0 mm 2,8 km/h (1 Bft) NO 45 12,1 C 0,0 km/h (0 Bft)
16.09.2015 11:15 21,2 C 24,7 C 56 % 1005,2 hPa 0,0 mm 1,8 km/h (1 Bft) W-NW 292 12,1 C 0,0 km/h (0 Bft)
16.09.2015 11:20 21,6 C 25,3 C 55 % 1005,2 hPa 0,0 mm 2,1 km/h (1 Bft) N-NW 337 12,2 C 0,0 km/h (0 Bft)
16.09.2015 11:25 22,4 C 27,3 C 53 % 1005,2 hPa 0,0 mm 3,9 km/h (1 Bft) SO 135 12,3 C 0,0 km/h (0 Bft)
16.09.2015 11:30 23,5 C 29,3 C 50 % 1005,2 hPa 0,0 mm 4,1 km/h (1 Bft) NW 315 12,5 C 4,9 km/h (1 Bft)
16.09.2015 11:35 23,2 C 28,8 C 51 % 1005,6 hPa 0,0 mm 2,8 km/h (1 Bft) S-SW 202 12,5 C 3,4 km/h (1 Bft)
16.09.2015 11:40 23,2 C 28,5 C 52 % 1005,6 hPa 0,0 mm 1,6 km/h (1 Bft) S-SO 157 12,8 C 0,0 km/h (0 Bft)
16.09.2015 11:45 23,7 C 29,0 C 51 % 1005,6 hPa 0,0 mm 2,3 km/h (1 Bft) NO 45 13,0 C 3,4 km/h (1 Bft)
16.09.2015 11:50 24,1 C 29,1 C 48 % 1005,6 hPa 0,0 mm 3,1 km/h (1 Bft) N-NW 337 12,4 C 4,7 km/h (1 Bft)
16.09.2015 11:55 24,6 C 30,7 C 47 % 1005,6 hPa 0,0 mm 3,1 km/h (1 Bft) O-NO 67 12,5 C 3,4 km/h (1 Bft)
16.09.2015 12:00 25,1 C 31,9 C 49 % 1005,6 hPa 0,0 mm 3,4 km/h (1 Bft) N-NO 22 13,6 C 4,7 km/h (1 Bft)
16.09.2015 12:05 25,3 C 32,6 C 49 % 1005,6 hPa 0,0 mm 3,1 km/h (1 Bft) N-NO 22 13,8 C 6,0 km/h (2 Bft)
16.09.2015 12:10 25,3 C 32,6 C 49 % 1005,6 hPa 0,0 mm 2,1 km/h (1 Bft) N 360 13,8 C 4,9 km/h (1 Bft)
16.09.2015 12:15 25,4 C 32,9 C 48 % 1005,9 hPa 0,0 mm 2,8 km/h (1 Bft) O-NO 67 13,6 C 5,4 km/h (1 Bft)
16.09.2015 12:20 25,5 C 33,5 C 47 % 1005,9 hPa 0,0 mm 4,1 km/h (1 Bft) SO 135 13,3 C 7,3 km/h (2 Bft)
16.09.2015 12:25 25,8 C 33,0 C 45 % 1005,9 hPa 0,0 mm 4,9 km/h (1 Bft) SW 225 13,0 C 5,7 km/h (1 Bft)
16.09.2015 12:30 26,1 C 32,8 C 43 % 1005,9 hPa 0,0 mm 5,2 km/h (1 Bft) NO 45 12,5 C 6,5 km/h (2 Bft)
16.09.2015 12:35 25,9 C 32,3 C 44 % 1005,9 hPa 0,0 mm 6,2 km/h (2 Bft) SO 135 12,7 C 9,8 km/h (2 Bft)
16.09.2015 12:40 25,9 C 31,8 C 43 % 1005,9 hPa 0,0 mm 6,7 km/h (2 Bft) N-NO 22 12,3 C 6,5 km/h (2 Bft)
16.09.2015 12:45 26,1 C 32,0 C 44 % 1005,9 hPa 0,0 mm 5,2 km/h (1 Bft) O-NO 67 12,9 C 3,9 km/h (1 Bft)
16.09.2015 12:50 25,7 C 31,4 C 45 % 1005,9 hPa 0,0 mm 3,9 km/h (1 Bft) NO 45 12,9 C 4,7 km/h (1 Bft)
16.09.2015 12:55 25,4 C 30,1 C 46 % 1005,8 hPa 0,0 mm 4,1 km/h (1 Bft) N-NW 337 12,9 C 7,3 km/h (2 Bft)
16.09.2015 13:00 25,0 C 29,2 C 46 % 1005,8 hPa 0,0 mm 4,1 km/h (1 Bft) NO 45 12,6 C 9,3 km/h (2 Bft)
16.09.2015 13:05 24,6 C 28,6 C 47 % 1005,8 hPa 0,0 mm 4,1 km/h (1 Bft) N-NO 22 12,5 C 8,8 km/h (2 Bft)
16.09.2015 13:10 24,3 C 27,9 C 48 % 1005,8 hPa 0,0 mm 3,6 km/h (1 Bft) S 180 12,6 C 2,6 km/h (1 Bft)
16.09.2015 13:15 24,1 C 27,5 C 49 % 1005,9 hPa 0,0 mm 3,4 km/h (1 Bft) O-NO 67 12,7 C 10,4 km/h (2 Bft)
16.09.2015 13:20 24,8 C 28,2 C 48 % 1005,9 hPa 0,0 mm 3,9 km/h (1 Bft) W-SW 247 13,0 C 7,3 km/h (2 Bft)
16.09.2015 13:25 25,6 C 29,5 C 48 % 1005,9 hPa 0,0 mm 2,6 km/h (1 Bft) NO 45 13,8 C 0,0 km/h (0 Bft)
16.09.2015 13:30 26,2 C 30,9 C 45 % 1005,9 hPa 0,0 mm 3,4 km/h (1 Bft) N-NO 22 13,3 C 11,1 km/h (2 Bft)
16.09.2015 13:35 26,5 C 31,7 C 44 % 1005,1 hPa 0,0 mm 4,9 km/h (1 Bft) NW 315 13,2 C 4,4 km/h (1 Bft)
16.09.2015 13:40 26,9 C 32,3 C 44 % 1005,1 hPa 0,0 mm 4,7 km/h (1 Bft) W-NW 292 13,6 C 9,6 km/h (2 Bft)
16.09.2015 13:45 26,7 C 32,2 C 42 % 1005,1 hPa 0,0 mm 4,9 km/h (1 Bft) O-NO 67 12,7 C 5,4 km/h (1 Bft)
16.09.2015 13:50 26,9 C 32,1 C 42 % 1005,1 hPa 0,0 mm 6,2 km/h (2 Bft) N-NO 22 12,9 C 5,2 km/h (1 Bft)
16.09.2015 13:55 27,2 C 32,6 C 41 % 1005,6 hPa 0,0 mm 4,4 km/h (1 Bft) N-NO 22 12,8 C 7,3 km/h (2 Bft)
16.09.2015 14:00 27,1 C 32,4 C 44 % 1005,6 hPa 0,0 mm 3,1 km/h (1 Bft) NO 45 13,8 C 0,0 km/h (0 Bft)
16.09.2015 14:05 27,4 C 33,4 C 45 % 1005,6 hPa 0,0 mm 2,1 km/h (1 Bft) N 360 14,4 C 0,0 km/h (0 Bft)
16.09.2015 14:10 27,5 C 34,1 C 42 % 1005,6 hPa 0,0 mm 2,3 km/h (1 Bft) O 90 13,4 C 6,2 km/h (2 Bft)
16.09.2015 14:15 27,2 C 33,8 C 42 % 1005,9 hPa 0,0 mm 3,4 km/h (1 Bft) SW 225 13,2 C 4,4 km/h (1 Bft)
16.09.2015 14:20 26,9 C 33,0 C 41 % 1005,9 hPa 0,0 mm 4,4 km/h (1 Bft) O-SO 112 12,5 C 6,0 km/h (2 Bft)
16.09.2015 14:25 26,8 C 32,9 C 42 % 1005,9 hPa 0,0 mm 4,4 km/h (1 Bft) S 180 12,8 C 6,7 km/h (2 Bft)
16.09.2015 14:30 26,9 C 32,5 C 42 % 1005,9 hPa 0,0 mm 3,6 km/h (1 Bft) W-SW 247 12,9 C 15,5 km/h (3 Bft)
16.09.2015 14:35 26,3 C 31,0 C 41 % 1005,6 hPa 0,0 mm 4,4 km/h (1 Bft) SW 225 12,0 C 0,0 km/h (0 Bft)
16.09.2015 14:40 25,5 C 30,0 C 46 % 1005,6 hPa 0,0 mm 2,8 km/h (1 Bft) O-SO 112 13,0 C 4,7 km/h (1 Bft)
16.09.2015 14:45 25,3 C 29,5 C 46 % 1005,6 hPa 0,0 mm 2,1 km/h (1 Bft) O-NO 67 12,8 C 6,7 km/h (2 Bft)
16.09.2015 14:50 25,5 C 28,8 C 44 % 1005,6 hPa 0,0 mm 6,0 km/h (2 Bft) NW 315 12,3 C 3,9 km/h (1 Bft)
16.09.2015 14:55 25,9 C 29,6 C 46 % 1005,6 hPa 0,0 mm 5,2 km/h (1 Bft) N-NW 337 13,4 C 5,4 km/h (1 Bft)
16.09.2015 15:00 26,1 C 30,5 C 45 % 1005,6 hPa 0,0 mm 3,6 km/h (1 Bft) NO 45 13,2 C 0,0 km/h (0 Bft)
16.09.2015 15:05 26,1 C 31,0 C 45 % 1005,6 hPa 0,0 mm 3,6 km/h (1 Bft) NW 315 13,2 C 4,1 km/h (1 Bft)
16.09.2015 15:10 26,2 C 30,8 C 47 % 1005,6 hPa 0,0 mm 2,6 km/h (1 Bft) N-NW 337 14,0 C 0,0 km/h (0 Bft)
16.09.2015 15:15 26,3 C 31,0 C 45 % 1005,2 hPa 0,0 mm 1,8 km/h (1 Bft) NW 315 13,4 C 4,1 km/h (1 Bft)
16.09.2015 15:20 26,0 C 30,8 C 46 % 1005,2 hPa 0,0 mm 1,6 km/h (1 Bft) SO 135 13,5 C 7,3 km/h (2 Bft)
16.09.2015 15:25 25,6 C 29,9 C 48 % 1005,2 hPa 0,0 mm 1,3 km/h (1 Bft) NO 45 13,8 C 0,0 km/h (0 Bft)
16.09.2015 15:30 25,7 C 30,0 C 45 % 1005,2 hPa 0,0 mm 2,8 km/h (1 Bft) O-NO 67 12,9 C 8,0 km/h (2 Bft)
16.09.2015 15:35 26,1 C 30,7 C 45 % 1005,2 hPa 0,0 mm 3,6 km/h (1 Bft) N-NW 337 13,2 C 4,9 km/h (1 Bft)
16.09.2015 15:40 26,8 C 32,3 C 46 % 1005,2 hPa 0,0 mm 2,8 km/h (1 Bft) NO 45 14,2 C 0,0 km/h (0 Bft)
16.09.2015 15:45 27,1 C 33,3 C 45 % 1005,2 hPa 0,0 mm 0,8 km/h (0 Bft) N-NW 337 14,1 C 0,0 km/h (0 Bft)
16.09.2015 15:50 27,0 C 33,9 C 43 % 1005,2 hPa 0,0 mm 2,1 km/h (1 Bft) O-SO 112 13,3 C 6,2 km/h (2 Bft)
16.09.2015 15:55 27,0 C 33,8 C 43 % 1005,0 hPa 0,0 mm 2,1 km/h (1 Bft) NO 45 13,3 C 0,0 km/h (0 Bft)
16.09.2015 16:00 26,9 C 33,6 C 44 % 1005,0 hPa 0,0 mm 2,6 km/h (1 Bft) SW 225 13,6 C 5,2 km/h (1 Bft)
16.09.2015 16:05 26,7 C 33,2 C 43 % 1005,0 hPa 0,0 mm 3,4 km/h (1 Bft) S-SW 202 13,1 C 7,3 km/h (2 Bft)
16.09.2015 16:10 26,6 C 32,9 C 44 % 1005,0 hPa 0,0 mm 4,1 km/h (1 Bft) O 90 13,3 C 5,4 km/h (1 Bft)
16.09.2015 16:15 26,5 C 32,5 C 42 % 1004,7 hPa 0,0 mm 4,7 km/h (1 Bft) S 180 12,5 C 6,0 km/h (2 Bft)
16.09.2015 16:20 26,1 C 31,7 C 44 % 1004,7 hPa 0,0 mm 3,1 km/h (1 Bft) NW 315 12,9 C 0,0 km/h (0 Bft)
16.09.2015 16:23 25,7 C 30,7 C 45 % 1004,7 hPa 0,0 mm 2,3 km/h (1 Bft) O 90 12,9 C 8,0 km/h (2 Bft)
16.09.2015 16:25 25,7 C 30,7 C 45 % 1004,7 hPa 0,0 mm 2,3 km/h (1 Bft) O 90 12,9 C 8,0 km/h (2 Bft)
16.09.2015 16:30 25,2 C 29,9 C 46 % 1004,7 hPa 0,0 mm 2,6 km/h (1 Bft) N-NW 337 12,7 C 2,6 km/h (1 Bft)
16.09.2015 16:35 24,9 C 29,6 C 47 % 1004,3 hPa 0,0 mm 2,8 km/h (1 Bft) O-SO 112 12,8 C 6,2 km/h (2 Bft)
16.09.2015 16:40 24,7 C 29,1 C 47 % 1004,3 hPa 0,0 mm 3,4 km/h (1 Bft) NO 45 12,6 C 3,9 km/h (1 Bft)
16.09.2015 16:45 24,6 C 29,0 C 48 % 1004,3 hPa 0,0 mm 3,6 km/h (1 Bft) O-NO 67 12,8 C 0,0 km/h (0 Bft)
16.09.2015 16:50 24,7 C 28,3 C 47 % 1004,3 hPa 0,0 mm 2,8 km/h (1 Bft) N-NO 22 12,6 C 4,9 km/h (1 Bft)
16.09.2015 16:55 24,5 C 27,4 C 47 % 1004,1 hPa 0,0 mm 2,3 km/h (1 Bft) NO 45 12,4 C 4,9 km/h (1 Bft)
16.09.2015 17:00 24,8 C 26,7 C 47 % 1004,1 hPa 0,0 mm 2,8 km/h (1 Bft) W-NW 292 12,7 C 2,8 km/h (1 Bft)
16.09.2015 17:05 24,5 C 26,3 C 47 % 1004,1 hPa 0,0 mm 1,8 km/h (1 Bft) O-NO 67 12,4 C 0,0 km/h (0 Bft)
16.09.2015 17:10 23,8 C 25,5 C 48 % 1004,1 hPa 0,0 mm 2,1 km/h (1 Bft) W-NW 292 12,1 C 5,7 km/h (1 Bft)
16.09.2015 17:15 23,7 C 25,1 C 48 % 1003,9 hPa 0,0 mm 2,6 km/h (1 Bft) O-NO 67 12,0 C 3,1 km/h (1 Bft)
16.09.2015 17:20 23,5 C 24,8 C 49 % 1003,9 hPa 0,0 mm 2,8 km/h (1 Bft) O-NO 67 12,2 C 0,0 km/h (0 Bft)
16.09.2015 17:25 23,5 C 24,7 C 48 % 1003,9 hPa 0,0 mm 2,8 km/h (1 Bft) O-NO 67 11,8 C 2,6 km/h (1 Bft)
16.09.2015 17:30 23,4 C 24,7 C 49 % 1003,9 hPa 0,0 mm 1,8 km/h (1 Bft) S 180 12,1 C 0,0 km/h (0 Bft)
16.09.2015 17:35 23,5 C 24,8 C 49 % 1003,7 hPa 0,0 mm 1,8 km/h (1 Bft) NO 45 12,2 C 6,5 km/h (2 Bft)
16.09.2015 17:40 23,2 C 24,7 C 50 % 1003,7 hPa 0,0 mm 1,0 km/h (0 Bft) NO 45 12,2 C 0,0 km/h (0 Bft)
16.09.2015 17:45 22,7 C 24,4 C 50 % 1003,7 hPa 0,0 mm 1,0 km/h (0 Bft) O-SO 112 11,7 C 0,0 km/h (0 Bft)
16.09.2015 17:50 22,8 C 24,1 C 53 % 1003,7 hPa 0,0 mm 1,6 km/h (1 Bft) NO 45 12,7 C 8,0 km/h (2 Bft)
16.09.2015 17:55 22,9 C 24,2 C 52 % 1003,2 hPa 0,0 mm 2,3 km/h (1 Bft) O-NO 67 12,5 C 7,0 km/h (2 Bft)
16.09.2015 18:00 23,0 C 24,3 C 49 % 1003,2 hPa 0,0 mm 2,6 km/h (1 Bft) NO 45 11,7 C 6,2 km/h (2 Bft)
16.09.2015 18:05 22,7 C 24,1 C 49 % 1003,2 hPa 0,0 mm 1,8 km/h (1 Bft) NW 315 11,4 C 0,0 km/h (0 Bft)
16.09.2015 18:10 22,2 C 23,6 C 51 % 1003,2 hPa 0,0 mm 1,6 km/h (1 Bft) N-NO 22 11,6 C 0,0 km/h (0 Bft)
16.09.2015 18:15 22,3 C 23,5 C 51 % 1003,3 hPa 0,0 mm 2,1 km/h (1 Bft) O 90 11,7 C 5,7 km/h (1 Bft)
16.09.2015 18:20 22,0 C 23,3 C 49 % 1003,3 hPa 0,0 mm 2,1 km/h (1 Bft) N-NW 337 10,8 C 3,6 km/h (1 Bft)
16.09.2015 18:25 21,9 C 23,1 C 51 % 1003,3 hPa 0,0 mm 1,6 km/h (1 Bft) SO 135 11,3 C 0,0 km/h (0 Bft)
16.09.2015 18:30 21,7 C 22,8 C 51 % 1003,3 hPa 0,0 mm 1,6 km/h (1 Bft) N-NO 22 11,1 C 3,9 km/h (1 Bft)
16.09.2015 18:35 21,6 C 22,8 C 51 % 1003,3 hPa 0,0 mm 2,6 km/h (1 Bft) N-NO 22 11,0 C 4,9 km/h (1 Bft)
16.09.2015 18:40 21,4 C 22,6 C 52 % 1003,3 hPa 0,0 mm 2,8 km/h (1 Bft) W 270 11,1 C 0,0 km/h (0 Bft)
16.09.2015 18:45 21,1 C 22,2 C 52 % 1003,3 hPa 0,0 mm 1,8 km/h (1 Bft) O 90 10,9 C 0,0 km/h (0 Bft)
16.09.2015 18:50 20,7 C 21,7 C 52 % 1003,3 hPa 0,0 mm 0,8 km/h (0 Bft) NO 45 10,5 C 3,1 km/h (1 Bft)
16.09.2015 18:55 20,5 C 21,3 C 53 % 1003,2 hPa 0,0 mm 1,0 km/h (0 Bft) O 90 10,6 C 0,0 km/h (0 Bft)
16.09.2015 19:00 20,6 C 21,1 C 52 % 1003,2 hPa 0,0 mm 1,3 km/h (1 Bft) W 270 10,4 C 0,0 km/h (0 Bft)
16.09.2015 19:05 20,4 C 20,9 C 53 % 1003,2 hPa 0,0 mm 0,8 km/h (0 Bft) O-NO 67 10,5 C 0,0 km/h (0 Bft)
16.09.2015 19:10 20,5 C 20,7 C 53 % 1003,2 hPa 0,0 mm 1,0 km/h (0 Bft) O 90 10,6 C 3,9 km/h (1 Bft)
16.09.2015 19:15 20,6 C 20,7 C 52 % 1003,1 hPa 0,0 mm 1,6 km/h (1 Bft) O-SO 112 10,4 C 0,0 km/h (0 Bft)
16.09.2015 19:20 20,2 C 20,6 C 52 % 1003,1 hPa 0,0 mm 0,8 km/h (0 Bft) O-SO 112 10,0 C 0,0 km/h (0 Bft)
16.09.2015 19:25 20,3 C 20,5 C 52 % 1003,1 hPa 0,0 mm 0,8 km/h (0 Bft) O-SO 112 10,1 C 5,2 km/h (1 Bft)
16.09.2015 19:30 20,3 C 20,4 C 52 % 1003,1 hPa 0,0 mm 1,0 km/h (0 Bft) O-SO 112 10,1 C 3,9 km/h (1 Bft)
16.09.2015 19:35 20,0 C 20,3 C 52 % 1003,2 hPa 0,0 mm 1,0 km/h (0 Bft) S-SO 157 9,8 C 0,0 km/h (0 Bft)
16.09.2015 19:40 19,8 C 20,0 C 52 % 1003,2 hPa 0,0 mm 0,5 km/h (0 Bft) W-SW 247 9,7 C 0,0 km/h (0 Bft)
16.09.2015 19:45 20,2 C 20,2 C 51 % 1003,2 hPa 0,0 mm 2,1 km/h (1 Bft) S 180 9,7 C 3,1 km/h (1 Bft)
16.09.2015 19:50 20,0 C 20,1 C 51 % 1003,2 hPa 0,0 mm 1,8 km/h (1 Bft) S-SO 157 9,6 C 3,4 km/h (1 Bft)
16.09.2015 19:55 20,3 C 20,2 C 51 % 1003,4 hPa 0,0 mm 1,8 km/h (1 Bft) O-SO 112 9,8 C 3,6 km/h (1 Bft)
16.09.2015 20:00 19,8 C 19,8 C 51 % 1003,4 hPa 0,0 mm 1,6 km/h (1 Bft) SW 225 9,4 C 5,2 km/h (1 Bft)
16.09.2015 20:05 19,9 C 19,9 C 51 % 1003,4 hPa 0,0 mm 1,8 km/h (1 Bft) NW 315 9,5 C 4,9 km/h (1 Bft)
16.09.2015 20:10 19,1 C 19,5 C 53 % 1003,4 hPa 0,0 mm 2,8 km/h (1 Bft) S 180 9,3 C 0,0 km/h (0 Bft)
16.09.2015 20:15 18,5 C 19,1 C 53 % 1003,4 hPa 0,0 mm 1,8 km/h (1 Bft) O-NO 67 8,7 C 0,0 km/h (0 Bft)
16.09.2015 20:20 18,5 C 18,9 C 54 % 1003,4 hPa 0,0 mm 0,5 km/h (0 Bft) W 270 9,0 C 0,0 km/h (0 Bft)
16.09.2015 20:25 18,4 C 18,8 C 54 % 1003,4 hPa 0,0 mm 0,8 km/h (0 Bft) S 180 8,9 C 0,0 km/h (0 Bft)
16.09.2015 20:30 18,1 C 18,7 C 54 % 1003,4 hPa 0,0 mm 1,0 km/h (0 Bft) W 270 8,6 C 3,6 km/h (1 Bft)
16.09.2015 20:35 18,0 C 18,5 C 55 % 1003,6 hPa 0,0 mm 0,8 km/h (0 Bft) O-NO 67 8,8 C 0,0 km/h (0 Bft)
16.09.2015 20:40 18,3 C 18,3 C 55 % 1003,6 hPa 0,0 mm 1,0 km/h (0 Bft) O 90 9,1 C 0,0 km/h (0 Bft)
16.09.2015 20:45 18,6 C 18,6 C 54 % 1003,6 hPa 0,0 mm 1,8 km/h (1 Bft) W-SW 247 9,1 C 0,0 km/h (0 Bft)
16.09.2015 20:50 18,8 C 18,9 C 54 % 1003,6 hPa 0,0 mm 1,8 km/h (1 Bft) O-NO 67 9,3 C 0,0 km/h (0 Bft)
16.09.2015 20:55 18,8 C 18,9 C 54 % 1003,6 hPa 0,0 mm 0,8 km/h (0 Bft) N-NO 22 9,3 C 3,4 km/h (1 Bft)
16.09.2015 21:00 19,2 C 19,1 C 53 % 1003,6 hPa 0,0 mm 1,0 km/h (0 Bft) O-NO 67 9,4 C 4,4 km/h (1 Bft)
16.09.2015 21:05 19,1 C 19,3 C 53 % 1003,6 hPa 0,0 mm 2,1 km/h (1 Bft) SW 225 9,3 C 0,0 km/h (0 Bft)
16.09.2015 21:10 18,9 C 19,3 C 52 % 1003,6 hPa 0,0 mm 1,3 km/h (1 Bft) O 90 8,8 C 0,0 km/h (0 Bft)
16.09.2015 21:15 18,9 C 19,2 C 52 % 1003,8 hPa 0,0 mm 0,5 km/h (0 Bft) S-SW 202 8,8 C 3,6 km/h (1 Bft)
16.09.2015 21:20 19,1 C 19,2 C 52 % 1003,8 hPa 0,0 mm 1,6 km/h (1 Bft) SW 225 9,0 C 0,0 km/h (0 Bft)
16.09.2015 21:25 19,1 C 19,1 C 52 % 1003,8 hPa 0,0 mm 2,3 km/h (1 Bft) O-NO 67 9,0 C 7,8 km/h (2 Bft)
16.09.2015 21:30 19,4 C 19,5 C 51 % 1003,8 hPa 0,0 mm 2,3 km/h (1 Bft) O 90 9,0 C 0,0 km/h (0 Bft)
16.09.2015 21:35 19,4 C 19,4 C 51 % 1003,8 hPa 0,0 mm 2,1 km/h (1 Bft) O-NO 67 9,0 C 0,0 km/h (0 Bft)
16.09.2015 21:40 19,5 C 19,4 C 51 % 1003,8 hPa 0,0 mm 1,3 km/h (1 Bft) SW 225 9,1 C 3,1 km/h (1 Bft)
16.09.2015 21:45 19,2 C 19,2 C 51 % 1003,8 hPa 0,0 mm 1,6 km/h (1 Bft) O-SO 112 8,8 C 6,7 km/h (2 Bft)
16.09.2015 21:50 19,3 C 19,5 C 51 % 1003,8 hPa 0,0 mm 2,1 km/h (1 Bft) O-NO 67 8,9 C 6,0 km/h (2 Bft)
16.09.2015 21:55 19,5 C 19,5 C 52 % 1004,1 hPa 0,0 mm 2,6 km/h (1 Bft) N-NO 22 9,4 C 3,4 km/h (1 Bft)
16.09.2015 22:00 19,8 C 19,8 C 51 % 1004,1 hPa 0,0 mm 3,4 km/h (1 Bft) N-NO 22 9,4 C 4,9 km/h (1 Bft)
16.09.2015 22:05 20,0 C 20,0 C 50 % 1004,1 hPa 0,0 mm 4,1 km/h (1 Bft) W-SW 247 9,3 C 4,1 km/h (1 Bft)
16.09.2015 22:10 19,7 C 20,0 C 49 % 1004,1 hPa 0,0 mm 3,6 km/h (1 Bft) O-SO 112 8,7 C 0,0 km/h (0 Bft)
16.09.2015 22:15 19,9 C 19,9 C 49 % 1004,2 hPa 0,0 mm 2,3 km/h (1 Bft) O-NO 67 8,9 C 3,9 km/h (1 Bft)
16.09.2015 22:20 19,5 C 19,6 C 51 % 1004,2 hPa 0,0 mm 1,6 km/h (1 Bft) SO 135 9,1 C 2,6 km/h (1 Bft)
16.09.2015 22:24 18,9 C 19,4 C 51 % 1004,2 hPa 0,0 mm 1,6 km/h (1 Bft) SW 225 8,5 C 7,3 km/h (2 Bft)
16.09.2015 22:25 18,9 C 19,4 C 51 % 1004,2 hPa 0,0 mm 1,6 km/h (1 Bft) SW 225 8,5 C 7,3 km/h (2 Bft)
16.09.2015 22:30 18,8 C 19,3 C 52 % 1004,2 hPa 0,0 mm 1,8 km/h (1 Bft) W 270 8,7 C 0,0 km/h (0 Bft)
16.09.2015 22:35 19,2 C 19,2 C 51 % 1004,4 hPa 0,0 mm 1,3 km/h (1 Bft) S 180 8,8 C 0,0 km/h (0 Bft)
16.09.2015 22:40 19,0 C 19,1 C 51 % 1004,4 hPa 0,0 mm 0,5 km/h (0 Bft) O-SO 112 8,6 C 2,6 km/h (1 Bft)
16.09.2015 22:45 19,3 C 19,2 C 51 % 1004,4 hPa 0,0 mm 0,5 km/h (0 Bft) O-SO 112 8,9 C 0,0 km/h (0 Bft)
16.09.2015 22:50 18,9 C 18,8 C 51 % 1004,4 hPa 0,0 mm 0,3 km/h (0 Bft) O-SO 112 8,5 C 0,0 km/h (0 Bft)
16.09.2015 22:55 18,5 C 18,7 C 52 % 1004,2 hPa 0,0 mm 1,0 km/h (0 Bft) W-NW 292 8,5 C 4,9 km/h (1 Bft)
16.09.2015 23:00 18,7 C 19,1 C 52 % 1004,2 hPa 0,0 mm 2,6 km/h (1 Bft) N-NW 337 8,6 C 0,0 km/h (0 Bft)
16.09.2015 23:05 18,7 C 19,1 C 52 % 1004,2 hPa 0,0 mm 2,6 km/h (1 Bft) NO 45 8,6 C 2,8 km/h (1 Bft)
16.09.2015 23:10 19,1 C 19,4 C 52 % 1004,2 hPa 0,0 mm 2,6 km/h (1 Bft) O-SO 112 9,0 C 2,8 km/h (1 Bft)
16.09.2015 23:15 19,1 C 19,5 C 51 % 1004,2 hPa 0,0 mm 2,8 km/h (1 Bft) N-NW 337 8,7 C 3,1 km/h (1 Bft)
16.09.2015 23:20 19,1 C 19,5 C 51 % 1004,2 hPa 0,0 mm 1,8 km/h (1 Bft) NW 315 8,7 C 2,6 km/h (1 Bft)
16.09.2015 23:25 19,4 C 19,6 C 51 % 1004,2 hPa 0,0 mm 2,3 km/h (1 Bft) W-SW 247 9,0 C 0,0 km/h (0 Bft)
16.09.2015 23:30 18,7 C 19,3 C 51 % 1004,2 hPa 0,0 mm 2,1 km/h (1 Bft) NO 45 8,4 C 4,1 km/h (1 Bft)
16.09.2015 23:35 19,0 C 19,2 C 52 % 1004,2 hPa 0,0 mm 1,3 km/h (1 Bft) O-SO 112 8,9 C 2,8 km/h (1 Bft)
16.09.2015 23:40 19,1 C 19,3 C 52 % 1004,2 hPa 0,0 mm 2,6 km/h (1 Bft) W-SW 247 9,0 C 0,0 km/h (0 Bft)
16.09.2015 23:45 18,7 C 19,2 C 52 % 1004,2 hPa 0,0 mm 2,6 km/h (1 Bft) O-NO 67 8,6 C 0,0 km/h (0 Bft)
16.09.2015 23:50 18,9 C 19,1 C 52 % 1004,2 hPa 0,0 mm 2,6 km/h (1 Bft) S 180 8,8 C 4,4 km/h (1 Bft)
16.09.2015 23:55 19,1 C 19,3 C 52 % 1004,3 hPa 0,0 mm 3,1 km/h (1 Bft) O-SO 112 9,0 C 0,0 km/h (0 Bft)
_ Min-Zeit 03:50 03:50 14:35 19:30 - 09:25 - - 05:55 23:55
Minimum _ 7,5 C 7,4 C 41 % 1003,1 hPa - 0,0 km/h (0 Bft) - - 5,6 C 0,0 km/h (0 Bft)
_ Max-Zeit 14:10 14:10 06:20 00:10 23:55 12:40 - - 14:05 10:30
Maximum _ 27,5 C 34,1 C 89 % 1009,3 hPa 0,0 mm 6,7 km/h
N-NO (2 Bft)
- - 14,4 C 25,1 km/h
N-NW (4 Bft)
Durchschnitt _ 17,1 C 18,8 C 65 % 1005,3 hPa #0,0 mm 1,9 km/h (1 Bft) O-NO - 9,7 C 2,8 km/h (1 Bft)